Regional Weather Roundup
Issued by NWS

Home | Current Version | Previous Version | Text Only | Print | Product List | Glossary On
Versions: 1 2 3 4 5 6 7 8 9 10 11 12 13 14 15 16 17 18 19 20 21 22 23 24 25 26 27
000
ASUS46 KPQR 171110
RWROR

OREGON REGIONAL WEATHER ROUNDUP
NATIONAL WEATHER SERVICE PORTLAND OR
400 AM PDT TUE OCT 17 2017

NOTE: "FAIR" INDICATES FEW OR NO CLOUDS BELOW 12,000 FEET WITH
NO SIGNIFICANT WEATHER AND/OR OBSTRUCTIONS TO VISIBILITY.

ORZ001>013-171200-
NORTHWEST OREGON


CITY           SKY/WX    TMP DP  RH WIND       PRES   REMARKS
ASTORIA        CLOUDY    45  43  93 CALM      30.07F
NEWPORT        PTCLDY    41  41 100 CALM      30.15S
PORTLAND       PTCLDY    43  42  97 SE5       30.09F
VANCOUVER WA   FOG       44  44 100 CALM      30.08F VSB 3/4
SCAPPOOSE      FOG       37  37 100 CALM      30.07F VSB 1/4
HILLSBORO      FOG       37  36  96 CALM      30.08S VSB 1/2
AURORA         FOG       43  40  89 CALM      30.10S VSB 1/2
MCMINNVILLE    FOG       41  41 100 NE3       30.09F VSB 1/4
SALEM          PTCLDY    44  42  93 CALM      30.08S
CORVALLIS      FOG       39  39 100 S3        30.10S VSB 1
EUGENE         PTCLDY    41  41 100 S6        30.10S FOG
$$

ORZ021-028-171200-
SOUTHWEST OREGON


CITY           SKY/WX    TMP DP  RH WIND       PRES   REMARKS
NORTH BEND     CLOUDY    49  48  97 SE6       30.16F FOG
BROOKINGS      CLEAR     49  43  80 CALM      30.13R
ROSEBURG       CLEAR     45  42  89 CALM      30.11F
SEXTON SUMMIT  CLEAR     58  27  30 SW6       30.17F
GRANTS PASS    FAIR      39  32  75 CALM      30.18S
MEDFORD        PTCLDY    45  35  68 CALM      30.14F
$$

ORZ014>016-041-171200-
COLUMBIA GORGE


CITY           SKY/WX    TMP DP  RH WIND       PRES   REMARKS
TROUTDALE      CLEAR     41  39  93 E3        30.09F
HOOD RIVER     CLEAR     36  36 100 CALM      30.06F
THE DALLES     PTCLDY    43  40  89 SE3       30.04F
$$

ORZ029>031-041-044-049-050-061>064-502-503-505>511-171200-
EASTERN OREGON


CITY           SKY/WX    TMP DP  RH WIND       PRES   REMARKS
MADRAS         CLEAR    N/A N/A N/A SE5       30.09F
REDMOND        PTCLDY    38  30  73 CALM      30.10F
BEND           PTCLDY    48  34  57 SW14      30.12F
PRINEVILLE     PTCLDY    39  32  75 CALM      30.12F
KLAMATH FALLS  PTCLDY    28  22  78 CALM      30.20F
LAKEVIEW       PTCLDY    25  15  66 N6        30.23F WCI  18
HERMISTON      CLEAR     42  35  76 S7        30.00F
PENDLETON      CLEAR     44  33  65 SE8       30.01F
JOHN DAY       PTCLDY    46  30  55 E8        30.15F
MEACHAM        CLEAR     30  26  85 CALM      30.10F
LA GRANDE      CLEAR     54  24  31 S20       30.12F
BAKER CITY     CLEAR     26  20  77 CALM      30.19F
BURNS          MOCLDY    24  22  91 N3        30.20F
ROME             N/A     34  21  59 SW7       30.20F WCI  28
ONTARIO        NOT AVBL
$$




USA.gov is the U.S. government's official web portal to all federal, state and local government web resources and services.